THORAD AGENA D DEB

Satellite information

Favourite Embed

Satellite Type and Status

DEBRISIN ORBIT

Key statistics

Satellite THORAD AGENA D DEB at a glance.

Uptime

20179

Days in orbit

Revolutions

≈ 14.0

Per day

Orbit

SSO

Sun Synchronous Orbit

Inclination

99.8

Latest

Satellite identification and parameters

Extended collection of information and parameters for THORAD AGENA D DEB.

Object identification

Identified? True

Debris? True

Object name: THORAD AGENA D DEB

International designator: 1970-025FK

Object number (NORAD): 4913

Object ID (CCSDS): 4913

Country: UNITED STATES OF AMERICA (US)

Current information (Y/N): Y

RCS size: SMALL

Orbital parameters

Period: 102.762 minutes

Inclination: 99.8367 deg

SMA: 7267.46 km

Apoapsis: 991.727 km

Periapsis: 786.924 km

RAAN: 251.7111 deg

Eccentricy: 0.0140904

Argument of periapsis: 52.8054 deg

Mean anomaly: 308.5875 deg

Mean motion: 14.01292325 rev/day

Mean motion (dot): 0.00000038 rev/day2

B* drag term: 0.000053823 1/REarth

Two-line elements (TLE)

Creation date: July 6, 2025, 10:26 p.m.

Reference frame: TEME

Reference center: EARTH

Epoch: July 6, 2025, 5:13 p.m. UTC

TLE line 0: 0 THORAD AGENA D DEB

TLE line 1: 1 4913U 70025FK 25187.71746249 .00000038 00000-0 53823-4 0 9990

TLE line 2: 2 4913 99.8367 251.7111 0140904 52.8054 308.5875 14.01292325806134

Live tracking on map

Real-time ground track for satellite THORAD AGENA D DEB.

In-orbit conjunctions

A list of the most updated potential collisions computed for object THORAD AGENA D DEB.

Target Orbit TCA Probability of collision Miss distance Type
THORAD AGENA D DEB SSO 2024-12-23 08:41:06 0.0001213421 385.0 (m) DEBRIS
METEOR 2-5 DEB LEO 2024-08-30 15:42:06 0.000109484 200.0 (m) DEBRIS

Associated space launch

Meteorological research and development satellite

THORAD AGENA D DEB was lifted into orbit during the mission ‘Thorad SLV-2G Agena D | Nimbus 4’, on board a Thorad SLV-2G Agena D space rocket.

The launch took place on April 8, 1970, 8:17 a.m. from Space Launch Complex 2E.

For more information about the launch, click the button.

Launch to space Thorad SLV-2G Agena D | Nimbus 4
Thorad SLV-2G Agena D | Nimbus 4

Agency: N/A

Status: Launch Successful

Launch date: April 8, 1970, 8:17 a.m. UTC

Rocket: Thorad SLV-2G Agena D

Launch pad: Space Launch Complex 2E

Location: Vandenberg SFB, CA, USA

...

Latest news about this satellite

There are no fresh news available about this satellite. Check back as we update our databases every day.


Newsletter sign-up

Weekly statistics, charts and insights to help you stay on top of the space industry.